Temp
-28 -28 -28 -28 -27 -27 -27 -27 -27 -27 -27 -27 -27 -26 -26 -26 -25 -25 -24 -24 -24 -24 -24 -24 -24 -24 -24 -24 -25 -25 -25 -24 -24 -24 -24 -24 -24 -24 -23 -23 -24 -24 -24 -23 -23 -22 -22 -22 -22 -22 -22 -22 -22 -21 -21 -21 -21 -21 -21 -20 -20 -20 -20 -20 -20 -20 -20 -19 -19 -19 -19 -18 -18 -18
-29 -28 -28 -28 -28 -28 -28 -28 -28 -27 -27 -27 -27 -27 -27 -27 -26 -26 -25 -25 -24 -24 -24 -24 -24 -24 -24 -24 -24 -24 -25 -25 -25 -24 -24 -24 -24 -24 -24 -24 -24 -24 -24 -24 -23 -23 -22 -22 -22 -22 -22 -22 -22 -22 -22 -21 -21 -21 -21 -21 -20 -20 -20 -20 -20 -20 -20 -20 -19 -19 -19 -19 -19 -19
-29 -29 -29 -29 -29 -29 -29 -28 -28 -28 -28 -28 -28 -28 -28 -27 -27 -27 -26 -26 -25 -25 -25 -25 -25 -25 -24 -25 -25 -24 -24 -25 -25 -25 -24 -24 -24 -24 -24 -24 -24 -24 -24 -24 -24 -23 -23 -23 -22 -22 -22 -22 -22 -22 -22 -22 -21 -21 -21 -21 -21 -20 -20 -20 -20 -20 -20 -20 -20 -20 -19 -19 -19 -19
-31 -31 -30 -30 -30 -30 -30 -30 -29 -29 -29 -29 -29 -29 -29 -29 -28 -28 -28 -27 -26 -26 -26 -26 -25 -25 -25 -25 -25 -25 -25 -25 -25 -25 -25 -25 -24 -24 -24 -24 -24 -24 -24 -24 -24 -24 -23 -23 -23 -23 -22 -22 -22 -22 -22 -22 -22 -21 -21 -21 -21 -20 -20 -20 -20 -20 -20 -20 -20 -20 -20 -19 -19 -19
-32 -32 -32 -32 -31 -31 -31 -31 -31 -31 -31 -31 -31 -30 -30 -30 -30 -30 -29 -29 -28 -27 -27 -27 -27 -26 -26 -26 -26 -26 -25 -25 -25 -26 -26 -25 -25 -25 -24 -24 -24 -24 -24 -24 -25 -24 -24 -23 -23 -23 -23 -22 -22 -22 -22 -22 -22 -21 -21 -21 -21 -20 -20 -20 -20 -20 -20 -20 -20 -20 -20 -20 -19 -19
-32 -32 -32 -32 -32 -32 -32 -32 -32 -32 -32 -32 -32 -32 -32 -31 -31 -31 -31 -30 -30 -29 -28 -28 -28 -27 -27 -27 -26 -26 -26 -26 -26 -26 -26 -26 -26 -25 -25 -24 -24 -24 -24 -25 -25 -25 -24 -24 -24 -23 -23 -23 -23 -23 -23 -22 -22 -22 -21 -21 -21 -21 -21 -21 -20 -20 -20 -20 -20 -20 -20 -20 -20 -19
-32 -32 -32 -32 -32 -32 -32 -32 -32 -32 -32 -32 -32 -32 -32 -32 -32 -32 -32 -31 -31 -30 -30 -30 -30 -29 -29 -28 -28 -28 -27 -27 -27 -27 -27 -27 -26 -26 -25 -25 -25 -25 -25 -25 -25 -25 -25 -24 -24 -24 -24 -23 -23 -23 -23 -23 -22 -22 -21 -21 -21 -20 -20 -21 -20 -20 -21 -21 -21 -20 -20 -20 -20 -20
-32 -32 -32 -32 -32 -32 -32 -32 -32 -32 -32 -32 -32 -32 -32 -32 -32 -32 -32 -32 -32 -31 -31 -31 -31 -30 -30 -30 -30 -29 -29 -29 -28 -28 -28 -28 -27 -27 -26 -26 -25 -25 -25 -25 -25 -25 -25 -25 -25 -24 -24 -24 -24 -23 -24 -23 -23 -22 -22 -21 -21 -21 -20 -21 -21 -21 -21 -21 -21 -21 -20 -20 -20 -20
-34 -34 -34 -34 -33 -33 -33 -33 -33 -33 -33 -33 -33 -32 -32 -32 -32 -32 -32 -32 -32 -32 -31 -31 -31 -31 -31 -31 -31 -31 -30 -30 -30 -30 -29 -29 -29 -29 -28 -27 -26 -26 -26 -26 -26 -26 -26 -26 -25 -25 -25 -24 -24 -24 -24 -24 -24 -23 -22 -22 -21 -21 -21 -21 -21 -21 -21 -21 -21 -21 -21 -21 -20 -20
-35 -35 -35 -35 -35 -35 -35 -35 -35 -34 -34 -34 -34 -34 -33 -33 -33 -33 -32 -32 -32 -32 -32 -31 -31 -31 -31 -31 -31 -31 -31 -31 -31 -30 -30 -30 -30 -30 -30 -29 -28 -27 -27 -27 -27 -27 -26 -26 -26 -26 -25 -25 -25 -24 -24 -24 -24 -23 -23 -22 -22 -21 -21 -21 -21 -21 -21 -21 -21 -21 -21 -21 -21 -20
-36 -36 -36 -36 -36 -36 -36 -36 -36 -36 -36 -35 -35 -35 -35 -34 -34 -34 -33 -33 -33 -33 -32 -32 -32 -31 -31 -31 -31 -31 -31 -31 -31 -31 -31 -31 -30 -30 -30 -30 -30 -29 -29 -28 -28 -28 -27 -27 -27 -26 -26 -25 -25 -25 -25 -24 -24 -24 -24 -23 -22 -22 -22 -22 -21 -21 -21 -21 -21 -21 -21 -21 -21 -21
-37 -37 -37 -37 -37 -37 -37 -37 -37 -37 -37 -36 -36 -36 -36 -36 -35 -35 -35 -34 -34 -34 -33 -33 -33 -32 -32 -31 -31 -31 -31 -31 -31 -31 -31 -31 -31 -31 -30 -30 -30 -30 -30 -29 -29 -29 -29 -28 -28 -28 -27 -26 -26 -25 -25 -25 -24 -24 -24 -24 -23 -23 -22 -22 -22 -22 -22 -22 -21 -21 -21 -21 -21 -21
-38 -38 -38 -38 -39 -39 -39 -39 -38 -38 -38 -38 -37 -37 -37 -37 -37 -36 -36 -36 -35 -35 -35 -34 -34 -33 -33 -32 -32 -32 -32 -31 -31 -31 -31 -31 -31 -31 -31 -31 -30 -30 -30 -30 -30 -29 -29 -29 -29 -29 -28 -28 -27 -26 -26 -25 -25 -25 -25 -24 -24 -24 -23 -23 -22 -22 -22 -22 -22 -22 -22 -22 -21 -21
-39 -39 -40 -40 -40 -40 -40 -40 -39 -39 -39 -39 -38 -38 -38 -38 -38 -38 -37 -37 -37 -36 -36 -35 -35 -34 -34 -33 -33 -33 -33 -32 -32 -32 -32 -32 -31 -31 -31 -31 -31 -31 -30 -30 -30 -30 -30 -30 -29 -29 -29 -29 -28 -28 -27 -26 -26 -25 -25 -25 -24 -24 -24 -23 -23 -23 -23 -22 -22 -22 -22 -22 -22 -21
-40 -40 -40 -40 -40 -40 -40 -40 -39 -39 -39 -39 -39 -38 -38 -38 -38 -38 -38 -37 -37 -37 -37 -36 -36 -36 -35 -35 -35 -34 -34 -34 -33 -33 -33 -33 -32 -32 -32 -31 -31 -31 -31 -30 -30 -30 -30 -30 -30 -30 -29 -29 -29 -29 -28 -28 -27 -26 -26 -25 -25 -25 -24 -24 -24 -23 -23 -23 -23 -23 -22 -22 -22 -22
-39 -40 -40 -40 -40 -40 -39 -39 -39 -39 -38 -38 -38 -38 -38 -38 -38 -37 -37 -37 -37 -38 -37 -37 -37 -37 -36 -36 -36 -36 -35 -35 -35 -34 -34 -34 -34 -33 -33 -33 -32 -32 -32 -32 -31 -31 -31 -30 -30 -30 -30 -30 -30 -29 -29 -29 -28 -27 -27 -26 -26 -25 -25 -24 -24 -24 -24 -23 -23 -23 -23 -23 -22 -22
-39 -39 -39 -39 -39 -39 -39 -39 -39 -38 -38 -38 -38 -38 -38 -37 -37 -37 -37 -37 -37 -37 -37 -37 -37 -37 -37 -37 -37 -37 -37 -37 -36 -35 -35 -35 -35 -34 -34 -34 -33 -33 -33 -33 -32 -31 -31 -31 -31 -31 -31 -30 -30 -30 -30 -30 -29 -28 -28 -27 -27 -26 -26 -25 -25 -24 -24 -24 -24 -24 -23 -23 -23 -22
-39 -39 -39 -39 -39 -39 -39 -39 -39 -39 -39 -38 -38 -38 -38 -37 -37 -37 -38 -38 -37 -37 -37 -37 -37 -37 -38 -38 -38 -38 -38 -38 -37 -36 -36 -37 -36 -35 -35 -35 -34 -34 -35 -35 -34 -32 -32 -32 -32 -32 -31 -31 -31 -31 -31 -30 -30 -29 -29 -28 -28 -27 -27 -26 -26 -25 -25 -25 -24 -24 -24 -24 -23 -23
-39 -39 -38 -38 -38 -38 -39 -39 -39 -39 -38 -38 -38 -38 -38 -38 -38 -38 -38 -38 -38 -38 -38 -37 -37 -37 -37 -38 -38 -39 -39 -38 -38 -37 -37 -37 -37 -36 -36 -35 -35 -35 -35 -35 -35 -33 -33 -33 -33 -33 -32 -32 -32 -32 -32 -31 -31 -30 -30 -29 -29 -28 -28 -27 -27 -26 -26 -25 -25 -25 -24 -24 -24 -24
-39 -39 -38 -38 -38 -38 -38 -38 -38 -38 -38 -38 -38 -38 -38 -38 -38 -38 -38 -39 -39 -38 -38 -38 -38 -37 -37 -37 -38 -39 -39 -39 -39 -38 -38 -38 -38 -37 -36 -36 -36 -36 -36 -36 -35 -34 -34 -34 -34 -33 -33 -33 -32 -33 -33 -33 -32 -32 -31 -30 -30 -30 -29 -29 -28 -28 -27 -27 -26 -26 -25 -25 -24 -24
-39 -39 -39 -38 -38 -38 -38 -38 -39 -39 -39 -38 -38 -38 -38 -38 -38 -38 -39 -39 -39 -39 -39 -39 -38 -38 -37 -37 -37 -38 -39 -40 -40 -39 -38 -38 -38 -37 -37 -36 -36 -36 -36 -36 -36 -35 -34 -35 -34 -34 -34 -33 -33 -33 -34 -34 -33 -32 -32 -32 -31 -31 -31 -30 -30 -29 -29 -28 -28 -28 -27 -26 -26 -25
-39 -39 -39 -39 -38 -38 -38 -39 -39 -39 -39 -39 -39 -38 -38 -38 -38 -38 -39 -40 -40 -40 -40 -39 -38 -38 -37 -37 -37 -38 -39 -40 -40 -39 -38 -39 -39 -38 -37 -37 -36 -37 -37 -36 -36 -35 -35 -35 -35 -35 -34 -34 -34 -34 -34 -34 -34 -33 -33 -33 -32 -32 -32 -31 -31 -31 -30 -30 -29 -29 -28 -28 -27 -26
-39 -39 -39 -39 -39 -39 -39 -39 -39 -39 -39 -39 -39 -39 -38 -38 -38 -39 -39 -40 -40 -40 -40 -39 -39 -38 -37 -38 -38 -38 -38 -39 -40 -38 -38 -39 -39 -37 -37 -37 -37 -37 -36 -36 -36 -36 -35 -35 -35 -35 -35 -34 -34 -34 -34 -34 -34 -34 -34 -33 -33 -33 -32 -32 -32 -32 -31 -31 -31 -30 -30 -29 -28 -27
-39 -39 -39 -40 -40 -40 -40 -40 -40 -40 -40 -40 -40 -39 -39 -38 -39 -40 -40 -40 -40 -40 -39 -39 -39 -38 -38 -38 -38 -38 -38 -39 -39 -39 -38 -39 -38 -37 -37 -37 -37 -36 -36 -36 -36 -36 -36 -36 -36 -35 -35 -35 -34 -35 -34 -34 -34 -34 -34 -34 -34 -33 -33 -33 -32 -32 -32 -32 -32 -31 -31 -30 -30 -29
-39 -39 -40 -40 -40 -40 -40 -40 -40 -40 -40 -40 -40 -40 -40 -40 -40 -41 -40 -40 -40 -40 -39 -39 -39 -39 -38 -38 -38 -38 -38 -38 -39 -38 -38 -39 -38 -38 -38 -37 -37 -36 -36 -36 -37 -36 -36 -36 -36 -36 -35 -35 -35 -35 -35 -34 -34 -34 -34 -34 -34 -33 -33 -33 -33 -32 -32 -32 -32 -32 -32 -31 -31 -30
-39 -39 -40 -40 -40 -41 -41 -41 -41 -40 -41 -41 -41 -41 -41 -41 -41 -41 -41 -41 -40 -40 -40 -40 -40 -39 -39 -39 -38 -38 -38 -39 -39 -38 -38 -39 -39 -39 -38 -38 -37 -37 -37 -37 -37 -36 -36 -36 -36 -35 -35 -35 -35 -35 -35 -34 -34 -34 -34 -34 -33 -33 -33 -33 -33 -33 -32 -32 -32 -32 -32 -31 -31 -30
-39 -39 -40 -40 -40 -41 -41 -41 -41 -41 -41 -41 -41 -41 -42 -42 -41 -41 -41 -41 -41 -41 -41 -40 -40 -40 -39 -39 -39 -39 -39 -39 -39 -39 -38 -39 -39 -39 -39 -39 -38 -38 -37 -37 -37 -36 -36 -36 -35 -35 -35 -35 -35 -35 -34 -34 -34 -34 -34 -33 -33 -33 -33 -33 -33 -33 -33 -32 -32 -32 -32 -32 -31 -31
-39 -39 -39 -40 -40 -40 -40 -41 -41 -41 -41 -42 -42 -42 -42 -42 -42 -42 -42 -42 -42 -42 -41 -41 -41 -41 -40 -40 -39 -39 -39 -39 -39 -39 -39 -39 -39 -39 -39 -39 -39 -38 -38 -37 -36 -36 -36 -36 -35 -35 -35 -35 -35 -34 -34 -34 -34 -34 -34 -33 -33 -33 -33 -33 -33 -33 -33 -33 -32 -32 -32 -32 -32 -31
-39 -39 -40 -40 -41 -41 -41 -41 -41 -42 -42 -42 -42 -42 -42 -42 -43 -43 -43 -43 -42 -42 -42 -42 -41 -41 -41 -40 -40 -40 -40 -40 -39 -39 -39 -39 -39 -39 -39 -39 -39 -38 -38 -37 -37 -36 -36 -36 -35 -35 -35 -35 -34 -34 -34 -34 -34 -34 -33 -33 -33 -33 -33 -33 -33 -33 -33 -33 -33 -32 -32 -32 -32 -32
-41 -41 -41 -41 -41 -41 -42 -42 -42 -43 -43 -43 -43 -43 -43 -43 -43 -43 -43 -43 -43 -43 -42 -42 -42 -41 -41 -41 -40 -40 -40 -40 -40 -39 -39 -39 -39 -39 -39 -39 -39 -38 -38 -37 -37 -36 -36 -36 -35 -35 -35 -34 -34 -34 -34 -34 -34 -34 -34 -34 -34 -33 -33 -33 -33 -33 -33 -33 -33 -33 -33 -32 -32 -32
-42 -42 -42 -42 -42 -42 -42 -43 -43 -43 -44 -44 -44 -44 -44 -44 -44 -44 -44 -43 -43 -43 -43 -42 -42 -42 -42 -41 -41 -41 -40 -40 -40 -40 -40 -39 -39 -40 -40 -40 -39 -39 -38 -37 -37 -36 -36 -35 -35 -35 -35 -34 -34 -34 -34 -34 -34 -34 -34 -34 -34 -33 -33 -33 -33 -33 -33 -33 -33 -33 -33 -32 -32 -32
-42 -42 -42 -42 -42 -43 -43 -44 -44 -44 -44 -45 -45 -45 -45 -45 -44 -44 -44 -44 -43 -43 -43 -43 -43 -42 -42 -42 -41 -41 -41 -41 -41 -40 -40 -40 -40 -40 -40 -39 -39 -39 -38 -37 -37 -36 -36 -35 -35 -35 -34 -34 -34 -34 -34 -34 -34 -34 -34 -34 -33 -33 -33 -33 -33 -33 -33 -33 -33 -33 -33 -32 -32 -32
-42 -42 -42 -42 -43 -44 -44 -44 -45 -45 -45 -45 -45 -46 -46 -45 -45 -44 -44 -44 -44 -44 -43 -43 -43 -43 -43 -42 -42 -42 -41 -41 -41 -41 -41 -40 -40 -40 -40 -39 -39 -38 -38 -37 -37 -36 -35 -35 -35 -34 -34 -34 -34 -34 -34 -34 -34 -34 -34 -34 -34 -34 -34 -33 -33 -33 -33 -33 -33 -33 -33 -33 -32 -32
-42 -42 -42 -43 -44 -44 -44 -45 -45 -45 -45 -46 -46 -46 -46 -46 -45 -45 -44 -44 -44 -44 -44 -44 -44 -44 -43 -43 -43 -42 -42 -42 -41 -41 -41 -40 -40 -40 -39 -39 -39 -38 -38 -37 -36 -36 -35 -35 -35 -34 -34 -34 -34 -34 -34 -34 -34 -34 -34 -34 -34 -34 -34 -34 -34 -34 -33 -33 -33 -33 -33 -33 -33 -33
-42 -43 -43 -43 -44 -44 -44 -45 -45 -46 -46 -46 -46 -46 -47 -46 -46 -45 -45 -44 -45 -45 -44 -44 -44 -44 -43 -43 -43 -43 -42 -42 -41 -41 -41 -40 -40 -40 -39 -39 -39 -38 -37 -37 -36 -35 -35 -35 -34 -34 -34 -34 -34 -34 -34 -34 -34 -34 -34 -34 -34 -34 -34 -34 -34 -34 -34 -34 -33 -33 -33 -33 -33 -33
-43 -43 -43 -43 -44 -45 -45 -45 -45 -46 -46 -46 -46 -46 -47 -46 -46 -46 -45 -44 -44 -44 -45 -44 -44 -44 -43 -43 -43 -42 -42 -42 -41 -41 -41 -40 -40 -40 -39 -39 -38 -38 -37 -36 -36 -35 -35 -35 -34 -34 -34 -34 -34 -34 -34 -34 -34 -34 -34 -34 -34 -34 -34 -34 -34 -34 -34 -33 -33 -33 -33 -33 -33 -33
-43 -43 -43 -43 -44 -45 -45 -45 -45 -46 -46 -46 -46 -46 -46 -46 -46 -45 -45 -45 -44 -44 -44 -44 -44 -44 -43 -43 -42 -42 -42 -42 -41 -41 -41 -40 -40 -40 -39 -38 -38 -37 -37 -36 -36 -35 -35 -35 -34 -34 -34 -34 -34 -34 -34 -34 -34 -34 -35 -35 -35 -34 -34 -34 -34 -34 -33 -33 -33 -33 -33 -33 -33 -32
-43 -43 -43 -43 -44 -44 -45 -45 -45 -46 -46 -46 -46 -46 -46 -46 -46 -45 -45 -45 -44 -44 -44 -44 -43 -43 -43 -43 -42 -42 -42 -42 -41 -41 -40 -40 -40 -39 -39 -38 -37 -37 -36 -36 -35 -35 -35 -35 -34 -34 -34 -34 -35 -35 -35 -35 -35 -35 -35 -35 -34 -34 -34 -34 -34 -34 -33 -33 -33 -33 -33 -33 -33 -32
-43 -43 -43 -43 -44 -44 -44 -45 -45 -45 -46 -46 -46 -46 -46 -46 -46 -45 -45 -45 -44 -44 -44 -44 -44 -43 -43 -43 -42 -42 -42 -41 -41 -40 -40 -39 -39 -39 -38 -37 -37 -36 -36 -35 -35 -35 -35 -35 -35 -35 -35 -35 -35 -35 -35 -35 -35 -35 -35 -35 -34 -34 -34 -34 -34 -34 -33 -33 -33 -33 -33 -33 -33 -33
-43 -43 -43 -43 -43 -44 -44 -44 -45 -45 -45 -45 -46 -46 -46 -46 -45 -45 -45 -44 -44 -44 -44 -44 -43 -43 -43 -43 -42 -42 -41 -41 -40 -40 -39 -39 -39 -38 -37 -37 -36 -36 -35 -35 -35 -35 -35 -35 -35 -35 -35 -35 -35 -35 -35 -35 -35 -35 -35 -34 -34 -34 -34 -34 -34 -33 -33 -33 -33 -33 -33 -33 -33 -33
-43 -43 -43 -43 -43 -43 -43 -44 -44 -44 -45 -45 -45 -45 -45 -45 -45 -44 -44 -44 -44 -43 -43 -43 -43 -42 -42 -42 -42 -41 -41 -40 -40 -39 -39 -38 -38 -37 -37 -36 -36 -35 -35 -35 -35 -35 -35 -35 -35 -35 -35 -35 -35 -35 -35 -35 -35 -35 -34 -34 -34 -34 -34 -34 -34 -33 -33 -33 -33 -33 -33 -33 -33 -33
-43 -43 -43 -43 -43 -43 -43 -43 -43 -44 -44 -44 -44 -44 -44 -44 -44 -44 -44 -44 -43 -43 -43 -43 -42 -42 -41 -41 -41 -40 -40 -40 -39 -39 -38 -38 -37 -37 -36 -36 -36 -35 -35 -35 -35 -35 -35 -35 -35 -35 -35 -35 -35 -35 -35 -35 -35 -34 -34 -34 -34 -34 -34 -34 -34 -33 -33 -33 -33 -33 -33 -33 -33 -33
-43 -43 -43 -43 -43 -43 -43 -43 -43 -43 -43 -43 -43 -44 -44 -44 -44 -44 -43 -43 -43 -43 -42 -42 -42 -41 -41 -41 -40 -40 -40 -39 -39 -38 -38 -37 -37 -36 -36 -36 -36 -36 -36 -35 -35 -35 -35 -35 -35 -35 -35 -35 -35 -35 -35 -35 -34 -34 -34 -34 -34 -34 -34 -34 -34 -34 -33 -33 -33 -33 -33 -33 -33 -33
-43 -43 -43 -43 -43 -43 -43 -43 -43 -43 -43 -43 -43 -43 -43 -43 -43 -43 -43 -43 -43 -43 -42 -42 -41 -41 -40 -40 -40 -40 -39 -39 -38 -38 -37 -37 -37 -36 -36 -36 -36 -36 -35 -35 -35 -35 -35 -35 -35 -36 -36 -36 -35 -35 -35 -35 -34 -34 -34 -34 -34 -34 -34 -34 -34 -34 -34 -34 -33 -33 -33 -33 -33 -33
-43 -43 -43 -43 -43 -43 -43 -43 -43 -43 -43 -43 -43 -43 -43 -43 -43 -43 -43 -43 -42 -42 -42 -41 -41 -40 -40 -39 -39 -39 -39 -38 -38 -38 -37 -37 -36 -36 -36 -36 -35 -35 -35 -35 -35 -35 -36 -36 -36 -36 -36 -35 -35 -35 -35 -35 -34 -34 -34 -34 -34 -34 -34 -34 -34 -34 -34 -34 -34 -34 -34 -34 -33 -33
Height
5361 5359 5358 5359 5360 5362 5361 5360 5362 5362 5361 5360 5360 5361 5361 5360 5361 5368 5373 5377 5385 5393 5393 5392 5399 5406 5407 5410 5417 5421 5423 5427 5430 5432 5438 5444 5450 5455 5459 5463 5468 5470 5471 5473 5478 5484 5488 5491 5495 5499 5503 5508 5510 5513 5517 5521 5524 5528 5531 5535 5539 5543 5546 5550 5554 5559 5563 5567 5571 5574 5579 5583 5587 5591
5343 5340 5341 5343 5343 5343 5343 5343 5345 5344 5343 5343 5343 5342 5344 5343 5342 5345 5349 5354 5366 5374 5374 5374 5378 5385 5388 5390 5396 5403 5407 5411 5414 5415 5419 5426 5433 5438 5443 5447 5453 5458 5459 5461 5464 5469 5474 5478 5482 5486 5491 5496 5498 5501 5505 5509 5511 5515 5519 5524 5527 5531 5536 5540 5544 5549 5553 5557 5561 5564 5569 5574 5577 5581
5325 5323 5324 5326 5326 5325 5324 5325 5327 5326 5324 5324 5326 5325 5326 5326 5324 5325 5325 5327 5344 5355 5352 5353 5360 5364 5369 5373 5375 5381 5388 5393 5396 5398 5401 5407 5414 5420 5425 5432 5438 5443 5447 5448 5450 5455 5460 5465 5469 5473 5478 5483 5486 5489 5492 5496 5499 5503 5507 5511 5515 5520 5525 5530 5534 5538 5542 5547 5552 5555 5559 5563 5567 5571
5305 5305 5306 5308 5309 5307 5305 5306 5308 5308 5306 5305 5306 5306 5307 5308 5307 5306 5303 5302 5319 5335 5331 5330 5340 5347 5350 5354 5356 5360 5369 5375 5378 5380 5383 5388 5394 5399 5406 5415 5422 5427 5432 5435 5436 5440 5445 5450 5454 5459 5464 5469 5473 5476 5479 5482 5487 5491 5494 5497 5502 5509 5514 5519 5523 5527 5532 5537 5542 5545 5548 5552 5557 5562
5287 5286 5289 5290 5291 5289 5287 5289 5289 5289 5289 5288 5288 5288 5287 5289 5289 5288 5284 5282 5292 5310 5313 5309 5316 5327 5329 5332 5338 5342 5347 5355 5360 5362 5364 5368 5373 5378 5386 5396 5404 5410 5416 5421 5423 5425 5429 5434 5439 5444 5450 5455 5459 5462 5465 5470 5474 5477 5480 5485 5491 5497 5502 5507 5511 5516 5522 5527 5531 5535 5538 5542 5546 5551
5270 5269 5271 5273 5273 5271 5270 5271 5271 5270 5271 5270 5270 5271 5269 5269 5271 5269 5266 5264 5268 5281 5293 5292 5294 5305 5309 5309 5317 5323 5325 5332 5339 5342 5347 5350 5353 5359 5367 5375 5384 5392 5398 5404 5409 5411 5414 5418 5423 5429 5434 5440 5445 5449 5452 5456 5458 5461 5467 5473 5478 5483 5489 5494 5500 5505 5512 5516 5520 5523 5527 5531 5535 5539
5254 5252 5253 5254 5253 5251 5251 5252 5253 5251 5252 5251 5250 5252 5252 5250 5252 5253 5249 5247 5248 5255 5268 5274 5277 5285 5289 5288 5295 5303 5304 5310 5316 5321 5328 5334 5336 5340 5347 5354 5363 5373 5380 5386 5391 5396 5398 5402 5408 5413 5419 5424 5430 5435 5438 5440 5443 5448 5454 5460 5465 5470 5476 5483 5488 5494 5500 5505 5508 5510 5514 5519 5523 5527
5236 5234 5234 5235 5233 5231 5231 5233 5233 5231 5231 5231 5229 5230 5233 5231 5232 5235 5232 5230 5231 5233 5242 5253 5260 5266 5269 5269 5274 5281 5284 5288 5295 5300 5307 5315 5319 5322 5327 5333 5341 5352 5361 5367 5373 5379 5382 5386 5392 5396 5402 5408 5414 5419 5423 5425 5429 5434 5440 5445 5451 5456 5463 5470 5476 5482 5487 5491 5495 5498 5502 5507 5511 5516
5216 5215 5214 5215 5214 5212 5213 5213 5213 5212 5210 5209 5208 5208 5211 5212 5212 5214 5214 5213 5213 5214 5219 5230 5240 5246 5249 5250 5254 5262 5265 5268 5275 5280 5286 5293 5300 5305 5309 5313 5321 5331 5341 5347 5354 5361 5366 5370 5375 5379 5384 5391 5397 5402 5407 5411 5414 5419 5425 5431 5437 5443 5450 5457 5462 5467 5472 5477 5482 5486 5490 5495 5499 5504
5197 5197 5196 5197 5196 5194 5194 5194 5193 5192 5191 5189 5188 5189 5190 5191 5191 5193 5195 5196 5195 5196 5199 5207 5216 5224 5230 5231 5234 5243 5248 5249 5253 5261 5267 5273 5281 5288 5294 5297 5301 5309 5318 5327 5335 5342 5347 5352 5357 5361 5366 5373 5378 5384 5390 5395 5400 5405 5410 5416 5422 5429 5435 5441 5447 5452 5458 5463 5469 5473 5478 5482 5487 5492
5181 5181 5180 5180 5179 5177 5175 5176 5175 5173 5173 5171 5171 5172 5173 5173 5173 5174 5177 5177 5176 5178 5181 5186 5193 5201 5208 5211 5214 5222 5227 5228 5233 5242 5249 5255 5263 5270 5276 5280 5283 5288 5296 5305 5315 5322 5329 5334 5338 5343 5349 5354 5360 5366 5373 5379 5385 5391 5396 5401 5407 5414 5420 5425 5431 5437 5443 5448 5454 5459 5464 5469 5474 5479
5166 5166 5165 5164 5163 5161 5159 5158 5157 5156 5156 5155 5156 5157 5156 5155 5156 5158 5159 5159 5159 5161 5163 5168 5172 5177 5184 5190 5194 5200 5204 5207 5215 5226 5231 5236 5243 5250 5255 5261 5266 5271 5276 5285 5295 5304 5311 5317 5322 5326 5332 5337 5342 5349 5356 5362 5369 5376 5382 5388 5393 5398 5404 5409 5415 5421 5427 5433 5439 5445 5450 5456 5462 5467
5154 5153 5152 5151 5149 5147 5146 5144 5144 5143 5142 5141 5143 5144 5142 5141 5142 5142 5143 5144 5144 5145 5147 5151 5155 5157 5163 5171 5175 5178 5183 5189 5199 5207 5209 5212 5221 5230 5235 5241 5249 5254 5259 5266 5275 5286 5294 5300 5307 5311 5315 5321 5327 5331 5338 5345 5352 5360 5366 5373 5378 5383 5388 5393 5399 5405 5411 5418 5424 5430 5436 5442 5448 5454
5145 5143 5142 5140 5138 5136 5135 5134 5133 5133 5132 5131 5131 5132 5131 5130 5129 5129 5130 5131 5132 5132 5133 5136 5139 5140 5145 5154 5158 5159 5166 5172 5178 5184 5188 5192 5201 5208 5213 5221 5230 5236 5242 5249 5258 5267 5276 5284 5292 5297 5302 5307 5312 5315 5321 5328 5336 5343 5349 5356 5363 5368 5373 5378 5383 5389 5396 5403 5409 5416 5422 5428 5434 5440
5137 5136 5134 5132 5129 5127 5126 5125 5124 5124 5124 5122 5121 5122 5121 5120 5120 5119 5120 5121 5121 5120 5121 5123 5125 5126 5131 5139 5142 5144 5149 5153 5157 5164 5170 5174 5181 5187 5192 5201 5213 5221 5226 5232 5240 5250 5258 5267 5276 5283 5289 5294 5298 5302 5307 5313 5319 5326 5333 5339 5346 5352 5357 5363 5368 5374 5381 5387 5394 5400 5407 5413 5419 5425
5129 5127 5126 5124 5122 5120 5117 5116 5116 5115 5115 5113 5112 5112 5112 5111 5111 5110 5110 5111 5111 5110 5110 5111 5114 5116 5121 5126 5129 5130 5132 5135 5140 5148 5153 5157 5162 5168 5174 5183 5195 5207 5212 5215 5221 5232 5241 5250 5259 5268 5275 5281 5285 5289 5294 5299 5304 5310 5316 5322 5328 5335 5341 5347 5353 5359 5366 5372 5378 5385 5391 5398 5404 5410
5120 5119 5118 5116 5114 5112 5110 5108 5108 5106 5105 5104 5103 5102 5102 5102 5101 5100 5100 5100 5100 5099 5099 5101 5106 5109 5110 5113 5118 5119 5117 5118 5125 5132 5137 5142 5146 5151 5158 5167 5180 5193 5197 5197 5203 5215 5227 5236 5244 5252 5261 5268 5273 5278 5282 5286 5290 5295 5300 5306 5312 5319 5326 5332 5338 5345 5351 5358 5364 5370 5376 5382 5389 5395
5112 5110 5109 5108 5107 5105 5103 5101 5099 5098 5096 5095 5093 5092 5092 5092 5091 5090 5090 5089 5087 5088 5088 5091 5097 5101 5100 5102 5107 5108 5104 5105 5111 5118 5123 5128 5131 5137 5146 5154 5165 5175 5179 5181 5189 5202 5215 5223 5229 5239 5249 5257 5262 5266 5270 5272 5275 5280 5286 5293 5299 5305 5312 5318 5325 5331 5337 5343 5349 5355 5361 5367 5373 5380
5104 5102 5100 5099 5098 5097 5095 5093 5090 5088 5087 5085 5084 5084 5083 5082 5081 5080 5080 5079 5077 5077 5077 5079 5084 5088 5090 5093 5096 5097 5094 5094 5099 5104 5110 5115 5118 5124 5132 5140 5149 5158 5165 5169 5178 5190 5202 5209 5217 5228 5237 5244 5250 5254 5256 5260 5264 5269 5275 5282 5288 5293 5299 5305 5311 5317 5323 5329 5334 5340 5346 5352 5358 5365
5097 5095 5093 5091 5090 5089 5087 5084 5081 5078 5076 5075 5075 5074 5074 5073 5072 5072 5071 5070 5068 5068 5068 5069 5071 5074 5078 5082 5086 5087 5085 5085 5088 5092 5097 5102 5106 5112 5119 5127 5135 5145 5153 5159 5167 5178 5189 5198 5207 5218 5225 5231 5237 5242 5245 5249 5254 5259 5266 5272 5277 5282 5287 5292 5298 5304 5310 5315 5321 5326 5331 5337 5343 5350
5091 5088 5085 5083 5081 5080 5078 5076 5072 5069 5066 5065 5065 5064 5064 5064 5063 5063 5063 5062 5060 5060 5059 5059 5060 5063 5066 5070 5076 5078 5077 5077 5079 5080 5085 5093 5097 5101 5108 5116 5125 5135 5143 5150 5158 5169 5180 5189 5198 5207 5213 5219 5226 5231 5236 5241 5246 5251 5257 5262 5267 5272 5277 5282 5287 5292 5298 5303 5308 5313 5318 5323 5329 5335
5084 5081 5078 5075 5072 5071 5069 5067 5064 5061 5058 5056 5055 5054 5054 5054 5054 5055 5055 5054 5054 5052 5050 5050 5052 5054 5057 5061 5066 5069 5070 5071 5070 5071 5079 5087 5089 5092 5100 5109 5117 5125 5132 5141 5151 5162 5173 5181 5189 5197 5203 5209 5217 5223 5229 5234 5238 5244 5249 5253 5258 5264 5269 5273 5278 5282 5288 5293 5297 5302 5306 5311 5316 5321
5078 5074 5071 5067 5064 5062 5060 5058 5056 5053 5050 5048 5047 5046 5045 5045 5046 5047 5046 5046 5045 5044 5043 5044 5044 5046 5049 5053 5057 5060 5062 5064 5063 5066 5075 5080 5080 5086 5095 5102 5107 5115 5124 5135 5146 5156 5165 5173 5181 5187 5193 5201 5210 5217 5222 5227 5231 5236 5241 5246 5251 5256 5261 5266 5270 5274 5279 5283 5288 5292 5296 5300 5304 5309
5072 5068 5064 5061 5058 5054 5052 5050 5048 5046 5043 5041 5040 5037 5036 5037 5039 5038 5037 5037 5036 5036 5037 5038 5038 5038 5042 5046 5049 5051 5054 5057 5058 5062 5069 5073 5076 5082 5088 5094 5100 5108 5120 5130 5139 5147 5155 5163 5171 5178 5185 5194 5203 5209 5214 5219 5224 5229 5234 5240 5246 5249 5253 5258 5262 5266 5271 5275 5279 5283 5287 5291 5295 5299
5065 5062 5059 5056 5053 5049 5046 5043 5040 5039 5037 5034 5032 5030 5029 5030 5030 5029 5029 5029 5029 5029 5031 5032 5031 5033 5035 5039 5041 5044 5047 5051 5053 5057 5063 5068 5071 5076 5082 5088 5095 5104 5114 5124 5131 5138 5147 5156 5164 5171 5179 5188 5197 5202 5206 5212 5218 5223 5229 5235 5239 5242 5246 5251 5255 5260 5264 5268 5272 5275 5279 5283 5286 5290
5058 5056 5053 5051 5047 5043 5040 5037 5034 5033 5031 5028 5026 5025 5024 5023 5023 5022 5022 5023 5023 5023 5024 5025 5025 5027 5029 5032 5035 5038 5041 5044 5048 5052 5059 5063 5067 5072 5078 5084 5092 5100 5109 5118 5125 5132 5141 5150 5158 5166 5174 5183 5190 5194 5200 5206 5213 5218 5224 5229 5233 5236 5240 5245 5249 5253 5257 5261 5265 5268 5271 5274 5278 5282
5052 5050 5047 5045 5042 5038 5035 5032 5029 5027 5025 5023 5021 5019 5018 5017 5017 5016 5017 5017 5017 5017 5018 5019 5020 5022 5024 5027 5030 5033 5036 5039 5043 5049 5055 5059 5063 5068 5073 5079 5086 5095 5102 5110 5118 5126 5135 5144 5153 5161 5169 5177 5183 5189 5195 5202 5208 5213 5218 5222 5226 5230 5234 5239 5243 5247 5251 5254 5258 5260 5264 5267 5271 5274
5046 5044 5041 5038 5035 5032 5029 5027 5024 5021 5020 5018 5017 5015 5014 5013 5012 5012 5011 5011 5011 5011 5012 5014 5015 5017 5020 5023 5025 5028 5031 5035 5039 5045 5050 5055 5060 5064 5069 5074 5080 5087 5095 5103 5112 5120 5128 5138 5147 5155 5163 5171 5178 5184 5190 5197 5203 5207 5212 5216 5220 5224 5229 5233 5237 5240 5244 5247 5251 5254 5257 5260 5264 5267
5039 5037 5034 5032 5029 5026 5024 5021 5019 5017 5016 5014 5013 5011 5010 5009 5008 5008 5007 5007 5007 5007 5008 5010 5011 5013 5016 5019 5021 5024 5027 5031 5036 5041 5046 5051 5056 5060 5064 5069 5075 5082 5089 5098 5106 5114 5123 5132 5142 5151 5159 5166 5173 5179 5185 5191 5197 5202 5206 5210 5214 5218 5223 5227 5231 5234 5238 5241 5244 5247 5250 5254 5257 5260
5033 5031 5029 5027 5024 5021 5019 5016 5015 5013 5012 5010 5009 5008 5007 5006 5005 5005 5004 5004 5004 5004 5005 5006 5008 5011 5013 5015 5018 5021 5024 5028 5033 5038 5043 5048 5053 5058 5062 5067 5072 5079 5087 5095 5103 5111 5120 5129 5139 5147 5155 5162 5168 5174 5181 5187 5192 5197 5201 5205 5209 5213 5218 5222 5225 5229 5232 5235 5238 5241 5244 5248 5251 5255
5031 5028 5026 5023 5020 5018 5015 5013 5011 5010 5009 5008 5007 5006 5005 5004 5003 5003 5002 5002 5002 5003 5003 5004 5006 5008 5010 5013 5016 5019 5022 5027 5032 5037 5042 5047 5051 5056 5061 5065 5071 5078 5085 5093 5101 5110 5119 5128 5137 5145 5151 5158 5164 5171 5178 5183 5188 5192 5196 5200 5204 5209 5213 5216 5220 5223 5226 5230 5233 5236 5239 5243 5246 5249
5029 5026 5024 5020 5017 5015 5012 5011 5009 5008 5007 5007 5006 5005 5004 5003 5002 5001 5001 5001 5001 5001 5002 5004 5005 5007 5009 5012 5015 5019 5022 5026 5031 5035 5040 5044 5049 5053 5058 5064 5070 5077 5084 5092 5101 5109 5117 5126 5134 5141 5148 5155 5161 5168 5174 5179 5184 5188 5192 5196 5201 5204 5208 5211 5215 5218 5222 5225 5228 5231 5235 5238 5241 5245
5027 5024 5021 5018 5015 5013 5011 5009 5008 5007 5006 5006 5005 5005 5004 5004 5002 5001 5000 5001 5001 5001 5002 5003 5005 5007 5010 5012 5016 5019 5022 5026 5030 5034 5038 5042 5047 5051 5057 5062 5069 5075 5083 5091 5099 5107 5115 5124 5131 5138 5145 5152 5158 5164 5170 5175 5180 5184 5188 5193 5196 5200 5203 5207 5210 5214 5217 5221 5224 5227 5231 5234 5238 5241
5024 5021 5018 5016 5013 5011 5009 5008 5007 5006 5006 5006 5005 5005 5004 5004 5003 5002 5001 5000 5001 5002 5002 5003 5005 5007 5010 5013 5016 5019 5023 5026 5029 5033 5037 5041 5046 5050 5056 5061 5067 5074 5082 5090 5098 5106 5114 5122 5129 5135 5142 5149 5155 5161 5167 5171 5176 5180 5185 5189 5192 5196 5199 5203 5206 5210 5214 5217 5221 5224 5227 5231 5234 5237
5022 5020 5017 5014 5012 5010 5008 5007 5006 5005 5005 5005 5005 5004 5004 5003 5003 5003 5002 5001 5001 5002 5003 5005 5006 5008 5010 5012 5015 5018 5022 5025 5028 5032 5036 5040 5045 5050 5055 5061 5067 5074 5081 5089 5097 5105 5113 5120 5127 5134 5141 5147 5153 5159 5164 5168 5173 5177 5181 5185 5189 5193 5196 5200 5203 5207 5211 5214 5217 5221 5224 5228 5231 5234
5021 5018 5015 5013 5011 5009 5007 5006 5005 5005 5004 5004 5004 5004 5003 5003 5003 5003 5003 5002 5002 5003 5004 5005 5007 5009 5011 5013 5015 5018 5022 5025 5028 5031 5036 5040 5045 5050 5056 5061 5068 5074 5082 5089 5097 5104 5112 5119 5126 5133 5139 5145 5151 5157 5161 5166 5170 5174 5178 5182 5186 5190 5193 5197 5201 5204 5208 5211 5215 5218 5221 5225 5228 5231
5019 5017 5014 5012 5010 5008 5007 5005 5004 5004 5004 5004 5004 5004 5003 5003 5003 5003 5003 5004 5004 5004 5005 5006 5008 5009 5011 5014 5016 5019 5022 5025 5028 5032 5036 5040 5045 5051 5057 5063 5069 5076 5083 5091 5097 5104 5112 5119 5126 5132 5138 5144 5149 5154 5159 5163 5168 5172 5176 5180 5183 5187 5191 5195 5198 5202 5205 5209 5212 5215 5219 5222 5225 5228
5018 5015 5013 5011 5009 5007 5006 5005 5004 5003 5003 5003 5004 5004 5003 5003 5003 5003 5004 5005 5006 5006 5007 5008 5009 5011 5013 5015 5017 5020 5023 5026 5030 5034 5038 5042 5047 5053 5059 5065 5072 5078 5085 5092 5099 5106 5112 5119 5125 5131 5137 5142 5148 5153 5157 5162 5166 5170 5174 5177 5181 5185 5189 5192 5196 5199 5203 5206 5210 5213 5216 5219 5222 5224
5016 5014 5012 5010 5008 5006 5005 5004 5003 5003 5003 5003 5003 5003 5004 5004 5004 5004 5005 5005 5006 5007 5008 5010 5011 5012 5014 5016 5019 5021 5025 5028 5032 5036 5040 5045 5050 5055 5061 5067 5074 5080 5086 5093 5100 5106 5113 5119 5125 5130 5136 5141 5146 5151 5156 5160 5163 5167 5171 5175 5179 5183 5186 5190 5193 5197 5200 5204 5207 5210 5213 5216 5218 5221
5015 5013 5011 5009 5007 5006 5004 5004 5003 5003 5003 5003 5003 5003 5003 5003 5004 5004 5005 5006 5007 5007 5009 5010 5012 5013 5015 5017 5020 5023 5026 5030 5034 5038 5042 5047 5052 5058 5064 5070 5075 5081 5088 5094 5101 5107 5113 5119 5124 5130 5135 5140 5145 5149 5153 5157 5161 5166 5170 5174 5177 5181 5185 5188 5191 5195 5198 5201 5204 5207 5210 5212 5215 5217
5014 5012 5010 5009 5007 5005 5004 5003 5003 5002 5002 5002 5002 5002 5003 5003 5004 5005 5006 5006 5008 5009 5010 5011 5013 5015 5016 5019 5022 5025 5029 5033 5037 5041 5046 5050 5055 5060 5066 5071 5077 5083 5090 5096 5102 5108 5113 5119 5124 5129 5134 5139 5143 5148 5152 5156 5160 5165 5168 5172 5176 5179 5183 5186 5189 5193 5196 5199 5202 5205 5207 5210 5212 5214
5014 5012 5010 5008 5007 5005 5004 5003 5003 5002 5002 5002 5002 5002 5003 5004 5005 5006 5007 5008 5009 5010 5012 5013 5015 5017 5019 5021 5024 5028 5032 5036 5040 5045 5049 5054 5059 5063 5068 5074 5080 5086 5092 5098 5103 5109 5114 5119 5124 5129 5133 5138 5142 5147 5151 5155 5160 5164 5167 5171 5175 5178 5181 5185 5188 5191 5194 5197 5200 5202 5205 5207 5209 5211
5014 5012 5010 5008 5007 5006 5005 5004 5003 5003 5003 5003 5003 5003 5004 5005 5006 5007 5008 5009 5011 5012 5014 5016 5018 5020 5022 5023 5026 5031 5035 5039 5044 5048 5052 5057 5062 5067 5072 5077 5083 5088 5094 5099 5105 5110 5115 5119 5124 5129 5133 5138 5142 5146 5151 5155 5159 5163 5166 5170 5173 5177 5180 5183 5186 5190 5192 5195 5198 5200 5202 5205 5207 5209
5014 5012 5010 5009 5008 5006 5005 5005 5004 5004 5004 5004 5005 5005 5006 5007 5008 5009 5010 5011 5013 5015 5017 5019 5021 5024 5026 5027 5029 5033 5038 5042 5047 5051 5055 5060 5065 5070 5075 5080 5085 5090 5096 5101 5106 5110 5115 5119 5124 5129 5133 5137 5141 5146 5150 5154 5158 5161 5165 5168 5172 5175 5178 5182 5185 5188 5190 5193 5195 5198 5200 5202 5205 5207
5014 5013 5011 5010 5008 5007 5007 5006 5006 5006 5006 5006 5006 5007 5008 5009 5010 5011 5012 5014 5016 5018 5020 5022 5024 5027 5030 5031 5033 5037 5041 5045 5049 5054 5058 5063 5068 5073 5078 5082 5087 5092 5097 5101 5106 5110 5114 5119 5124 5128 5132 5136 5141 5145 5149 5153 5157 5160 5164 5167 5171 5174 5177 5180 5183 5186 5188 5191 5193 5196 5198 5200 5202 5204
Wind_Speed
112 113 113 114 114 114 114 115 115 116 116 117 118 118 119 120 121 122 122 121 119 117 117 117 115 113 112 110 108 107 106 106 106 105 104 102 100 98 97 95 93 92 92 93 92 90 89 88 87 87 86 85 85 85 84 84 84 83 82 81 80 79 79 80 79 79 80 80 81 82 81 79 78 76
113 114 115 115 116 116 117 117 117 118 119 119 120 120 121 122 123 124 125 124 122 121 120 120 119 118 117 116 114 112 110 109 109 109 108 107 104 102 101 100 98 96 95 96 96 94 93 92 91 90 89 88 87 87 87 87 87 86 85 84 83 82 81 81 81 80 80 80 81 82 82 82 80 79
112 113 114 115 115 116 117 118 118 119 120 121 121 121 122 122 123 125 127 127 126 124 124 123 123 121 120 120 118 117 115 112 111 111 111 111 109 107 105 103 101 99 97 98 99 98 97 96 95 94 93 91 91 90 90 89 89 89 88 87 86 85 83 82 82 82 82 81 81 82 83 83 82 81
107 108 109 110 110 111 113 114 115 116 117 118 119 120 120 121 122 123 126 128 128 127 126 126 125 124 123 122 122 121 119 116 114 114 113 113 113 112 110 107 105 103 100 99 100 101 101 100 99 98 97 95 94 94 94 93 92 92 91 91 89 88 86 85 84 84 83 83 82 82 83 84 84 83
103 103 104 104 105 106 107 108 109 110 111 112 113 115 116 117 118 119 121 125 127 127 126 126 126 126 125 124 124 123 122 120 118 116 116 116 116 116 114 111 108 106 104 102 101 102 103 103 102 101 100 99 98 97 97 96 96 95 95 94 92 90 89 88 87 86 85 84 83 83 83 84 85 85
103 104 104 104 104 105 105 106 106 107 108 108 109 110 111 112 113 115 117 119 122 123 123 122 123 124 125 125 125 124 123 123 122 119 118 118 118 118 117 115 112 109 107 105 103 103 104 105 104 104 103 102 101 100 99 99 100 99 98 97 96 94 92 91 89 88 86 85 85 86 85 85 85 86
105 106 106 106 107 108 108 108 108 109 109 110 110 110 111 112 112 113 115 117 118 118 118 117 117 118 120 120 121 122 121 121 122 121 119 117 118 119 119 118 116 113 110 108 106 105 105 106 106 106 105 104 103 102 102 102 103 102 101 100 99 98 95 93 92 90 88 87 87 88 88 87 87 87
105 106 106 106 107 108 109 109 110 111 112 112 113 113 114 114 114 115 116 117 118 118 117 115 114 114 115 115 115 116 116 116 117 118 117 116 115 116 118 119 119 116 113 110 108 107 107 107 107 107 107 106 106 105 104 104 105 105 104 103 102 101 99 96 94 93 91 90 90 90 90 89 89 88
99 99 100 100 101 102 103 104 105 106 108 110 112 113 114 115 116 117 118 118 119 120 119 117 114 113 113 114 113 112 112 112 112 112 113 112 110 110 112 116 118 117 115 112 110 108 107 108 108 109 109 108 108 107 106 106 106 107 106 106 105 104 102 100 98 97 95 94 93 92 92 92 91 90
90 91 91 91 92 93 94 95 96 97 99 102 104 106 108 110 112 114 115 117 118 120 120 119 118 116 115 115 115 113 113 113 112 111 110 110 108 106 106 108 112 113 113 111 109 108 107 107 108 110 110 110 110 110 109 108 108 108 108 108 107 106 105 103 102 100 99 97 96 95 94 94 93 93
83 83 83 84 84 85 86 86 87 89 91 93 95 96 98 100 103 105 107 109 112 114 116 117 118 118 117 117 117 116 115 116 115 113 111 110 108 106 105 105 106 108 109 108 106 105 104 105 106 108 110 111 112 112 111 111 110 109 109 109 109 108 107 106 105 103 102 100 99 98 97 96 95 95
75 75 74 74 74 75 76 77 78 80 82 84 85 86 88 90 93 95 97 99 102 105 107 109 111 113 114 115 116 117 117 117 116 114 113 112 111 109 108 107 106 106 106 105 103 101 100 100 101 103 106 109 111 113 113 112 112 111 110 109 109 109 109 109 108 106 105 104 102 101 99 98 98 97
62 61 60 60 60 61 62 64 66 67 69 71 73 73 75 78 80 82 85 88 91 94 97 99 102 104 106 108 110 112 113 114 114 114 113 114 113 112 111 110 109 108 107 106 103 100 98 97 97 98 100 103 106 110 112 113 113 112 112 111 110 110 110 111 110 109 108 106 105 104 103 101 100 99
48 48 49 49 51 52 53 54 55 56 58 60 61 61 62 64 67 69 71 74 77 81 84 88 91 94 97 98 100 103 105 106 108 109 110 111 112 112 112 111 110 109 109 108 105 102 100 98 96 95 95 97 99 103 106 109 111 112 113 112 112 112 111 112 111 111 110 109 107 106 105 104 103 101
41 43 44 46 48 50 51 52 52 52 53 54 55 56 56 57 59 60 61 62 64 67 70 73 76 81 84 86 89 93 96 97 99 101 102 104 106 108 109 109 108 107 108 107 105 104 102 99 96 95 94 94 95 96 99 102 105 108 110 112 113 113 113 113 113 112 112 110 109 108 107 107 105 104
40 41 42 44 46 48 50 51 50 51 51 52 54 54 55 55 56 57 58 58 59 61 62 63 64 66 68 71 75 80 85 88 90 92 93 95 98 100 102 102 102 102 102 103 104 102 101 98 95 94 93 92 92 92 93 95 97 100 104 108 110 112 113 114 114 113 113 112 111 110 109 108 108 107
40 41 42 43 44 47 48 49 49 50 51 52 53 54 55 56 57 58 60 60 61 62 62 61 58 57 58 59 61 66 72 77 81 83 85 87 90 93 94 94 94 94 94 97 99 99 96 94 92 91 90 88 87 88 89 90 92 94 97 100 104 107 109 111 112 113 113 113 112 111 110 109 109 109
41 41 42 42 43 44 45 47 48 49 51 53 55 56 57 58 60 61 61 62 63 63 63 62 57 54 54 53 52 56 62 68 72 75 77 79 83 86 87 87 87 87 88 91 93 92 90 89 87 86 85 83 82 82 84 86 87 89 90 92 95 99 102 105 107 110 111 112 112 112 111 111 110 110
40 40 41 41 41 42 44 46 49 51 53 55 56 57 58 59 59 60 59 60 61 61 61 60 58 55 54 52 50 52 57 60 63 66 69 72 77 80 81 82 82 83 84 86 86 86 84 83 81 80 78 77 78 78 80 81 82 83 84 85 87 90 93 97 100 103 105 107 109 110 111 111 111 110
39 40 40 41 42 43 45 47 50 52 54 55 55 55 55 55 55 55 54 55 57 57 56 56 56 55 54 51 49 50 54 56 58 60 63 67 72 75 77 78 78 79 80 82 82 81 79 77 75 73 73 73 74 75 75 76 77 77 77 78 80 82 84 87 90 93 96 98 101 103 105 107 109 109
38 39 41 43 44 45 45 46 48 49 51 52 52 52 52 51 51 50 50 51 52 53 54 54 54 54 53 51 49 49 51 54 56 58 59 61 66 70 73 74 74 75 76 78 78 76 73 71 69 68 69 70 71 71 70 70 71 71 71 72 74 75 76 78 80 82 85 87 90 93 96 99 102 105
38 40 42 43 44 44 43 43 44 46 48 49 51 51 51 50 49 47 46 46 48 49 52 53 53 51 50 48 48 48 49 52 56 57 54 55 61 66 68 70 70 71 73 74 73 70 67 66 65 65 66 67 67 66 65 65 66 67 67 68 69 69 70 70 71 72 74 76 79 82 86 90 94 97
38 40 41 42 42 42 41 42 43 45 47 48 48 50 50 48 46 44 43 44 45 47 48 50 51 50 47 44 44 47 49 51 55 53 49 51 58 62 63 66 67 69 69 69 68 66 64 63 63 63 64 64 62 61 62 63 64 64 64 64 63 63 63 63 64 64 65 67 70 72 76 80 84 89
37 38 38 38 38 39 40 41 43 43 44 45 46 48 49 46 44 43 42 42 44 45 44 45 47 49 46 41 41 45 49 50 52 50 45 46 52 56 58 62 64 65 64 63 63 63 63 63 62 62 62 61 58 58 59 61 62 62 60 58 57 57 58 58 58 58 59 60 62 64 67 70 74 79
37 36 35 34 34 36 38 40 41 41 41 43 44 46 46 44 42 42 41 41 42 42 40 40 43 44 43 40 39 42 45 48 50 48 42 41 45 49 52 56 58 60 59 60 61 62 62 62 62 61 60 58 56 57 58 58 59 58 56 53 52 53 54 54 54 54 54 55 56 58 60 63 66 69
37 34 32 31 31 33 35 37 38 38 38 39 40 40 40 39 39 38 37 36 36 36 35 36 38 39 40 39 37 38 41 46 48 46 41 38 39 42 45 48 51 53 54 56 58 59 60 60 60 59 57 55 55 55 55 55 54 54 52 50 50 51 51 51 50 51 51 52 53 55 56 58 60 63
35 32 30 29 29 31 33 34 34 34 33 33 34 35 35 34 33 32 30 29 29 29 29 30 32 33 34 34 34 35 37 42 45 43 39 37 36 37 39 43 45 48 50 54 56 57 59 59 59 57 55 54 54 53 52 52 51 50 49 49 49 49 49 48 49 49 50 51 51 52 53 54 56 58
33 30 29 28 28 29 31 31 30 28 27 27 28 29 28 27 26 25 24 24 24 24 23 24 25 27 28 30 30 31 34 39 42 41 38 36 35 35 38 41 44 46 49 52 55 56 58 59 58 56 54 53 52 51 50 50 49 48 48 47 47 47 46 46 47 47 48 48 48 49 49 50 52 53
34 32 32 31 31 31 30 27 24 22 21 22 23 23 23 21 21 21 20 20 19 19 19 20 21 22 24 26 27 28 32 36 39 39 38 36 35 35 37 40 43 45 48 51 54 56 57 58 56 54 52 51 50 50 49 48 47 47 46 45 45 45 44 44 44 45 45 45 45 45 46 47 48 49
36 35 34 32 31 29 26 23 20 18 18 19 19 18 18 17 17 17 16 16 15 15 15 15 17 18 20 23 25 28 31 35 37 37 36 35 33 32 34 37 40 43 46 49 52 54 55 55 54 51 50 49 49 48 47 46 45 44 44 43 43 42 41 42 42 42 42 43 43 43 44 44 45 46
34 33 32 30 28 25 22 18 16 15 15 15 14 14 13 13 13 13 12 12 11 11 11 12 13 15 17 20 23 26 29 32 34 34 33 31 29 29 31 35 38 41 44 47 49 50 51 52 51 49 49 48 47 46 45 44 42 41 41 41 40 40 40 40 40 40 41 41 41 41 42 42 43 43
30 29 28 26 23 21 18 15 13 12 12 11 11 10 10 10 10 9 8 8 7 7 7 8 9 12 14 17 19 23 26 28 29 29 29 29 29 29 31 34 36 39 42 44 46 48 49 50 49 48 47 46 45 44 43 41 40 39 39 39 39 39 39 39 39 39 39 39 39 39 39 40 40 40
26 26 25 22 20 17 14 12 11 10 9 8 7 6 6 8 8 7 5 4 4 5 5 6 8 10 12 13 15 19 23 26 27 28 29 29 29 29 31 33 36 39 41 43 45 47 49 49 47 46 46 45 43 42 40 39 38 38 38 38 38 38 37 37 37 37 37 36 37 37 37 37 37 37
25 24 22 19 17 15 12 10 10 9 8 7 5 4 4 6 7 6 4 4 4 5 7 8 10 11 13 14 15 18 22 24 26 27 28 28 29 30 32 35 37 40 42 44 46 48 48 47 46 46 45 43 41 39 38 38 38 37 37 37 36 36 36 36 35 35 34 34 34 34 34 34 34 35
23 22 19 17 16 15 12 9 9 9 9 8 6 5 4 6 6 7 6 6 7 8 9 10 12 14 16 18 19 21 23 25 26 28 28 28 30 32 34 36 39 42 44 46 47 47 46 46 46 44 42 40 38 37 37 37 36 36 35 35 34 34 34 34 34 33 33 33 33 33 32 32 33 34
22 20 17 15 14 14 11 9 9 10 10 9 8 8 7 7 7 7 8 8 9 10 11 12 13 15 17 19 21 22 24 25 27 28 29 30 32 34 37 39 42 44 45 46 46 46 45 44 43 41 39 38 37 36 36 35 35 34 33 33 33 33 33 33 32 32 31 31 31 31 31 32 32 33
21 19 16 13 12 12 11 9 8 9 10 11 10 10 10 10 9 8 9 9 9 11 12 14 15 17 18 19 21 22 24 26 27 29 31 32 34 36 38 41 43 43 44 44 45 44 43 41 40 39 38 37 36 35 34 33 33 32 32 32 32 32 32 31 31 30 29 29 30 31 31 31 32 32
21 18 16 13 10 9 9 8 7 7 9 10 10 10 10 11 10 8 8 8 9 9 11 13 15 16 18 19 20 22 24 27 28 30 32 34 35 38 39 41 42 43 43 44 43 42 41 40 39 38 37 36 35 34 32 31 31 31 32 32 32 32 31 30 29 29 29 29 30 31 31 31 30 30
20 18 16 13 9 8 7 6 5 4 5 7 7 8 9 10 10 8 7 7 7 8 9 10 12 15 17 18 20 22 25 27 29 31 33 35 37 38 40 41 42 43 44 43 42 40 40 39 38 38 36 35 33 32 31 31 32 32 32 32 31 31 30 29 29 29 29 30 30 30 29 29 29 28
20 18 16 13 9 7 5 4 3 2 2 3 4 5 6 8 8 6 5 5 6 8 9 10 12 15 18 19 21 24 27 29 31 33 35 36 38 39 41 42 43 43 43 42 41 40 39 38 37 36 35 33 32 31 32 33 33 33 32 31 30 30 29 29 29 29 29 29 29 28 27 27 27 26
19 17 15 13 10 7 5 3 3 1 0 1 2 3 5 5 5 4 4 6 8 9 10 11 14 17 19 21 22 25 28 30 32 34 36 38 40 41 43 43 44 43 42 41 40 39 38 37 36 35 33 32 32 32 33 33 32 31 31 30 30 29 29 29 29 29 29 28 27 26 25 25 25 25
18 16 14 13 11 8 6 4 3 2 1 0 1 2 2 3 5 6 7 9 10 11 12 14 16 19 21 23 24 26 28 31 33 36 38 39 41 42 43 43 42 41 40 39 38 37 36 35 34 33 31 31 32 32 32 32 31 30 30 30 29 29 29 29 28 28 27 26 25 24 24 24 24 24
17 15 13 11 10 8 6 4 3 2 2 2 2 3 5 6 8 9 11 12 13 14 15 17 18 21 23 25 27 28 30 33 35 37 38 40 41 41 41 40 40 39 38 37 36 35 34 33 32 31 30 31 31 32 31 31 30 30 30 29 29 28 28 28 27 26 26 25 24 23 23 23 23 24
16 14 12 10 8 6 5 3 3 3 3 4 5 6 8 9 11 12 13 15 15 16 17 19 21 23 26 28 30 31 32 34 35 37 38 39 39 39 39 38 38 37 36 35 34 34 33 33 32 31 31 31 32 32 31 31 30 30 30 29 29 28 28 27 26 25 24 23 23 23 23 23 23 23
15 14 11 9 6 5 4 4 4 5 6 7 8 9 11 12 13 14 16 17 18 19 21 23 25 26 29 31 32 33 34 35 37 38 38 38 38 38 37 37 36 36 35 35 35 34 34 33 32 32 32 32 32 31 31 31 31 30 29 29 28 27 27 26 25 24 24 23 23 22 22 22 22 22
Wind_Direction
269 269 269 268 268 268 268 268 268 267 267 267 267 267 267 267 266 264 263 262 262 262 262 262 261 261 260 260 259 258 259 259 259 258 257 256 256 255 254 253 252 252 253 253 252 250 249 248 248 247 247 246 246 246 246 246 245 245 244 243 242 241 240 240 239 238 237 237 237 237 237 237 237 237
269 269 269 269 269 268 268 268 267 267 267 267 267 267 267 267 266 266 264 263 262 261 261 261 261 261 260 260 260 259 258 258 258 258 257 257 255 255 254 254 253 252 252 253 253 252 251 250 249 248 247 246 246 246 246 246 245 245 244 243 242 241 240 240 239 238 238 237 237 237 237 237 237 238
269 269 269 268 268 268 268 267 267 267 267 267 266 266 266 266 266 266 265 264 262 261 261 261 261 260 260 260 260 259 259 258 258 258 258 257 256 255 254 253 253 252 252 252 252 252 251 250 250 249 248 247 246 246 246 245 245 245 245 244 243 242 241 240 240 239 238 238 237 238 238 237 237 237
270 269 269 268 268 267 267 267 267 266 266 266 266 265 265 265 265 265 265 264 263 262 262 261 261 260 260 260 260 259 259 258 258 258 258 257 256 255 254 253 252 251 251 251 251 252 252 251 250 250 249 248 247 247 246 246 245 245 245 244 243 242 241 241 240 239 239 238 238 238 239 238 238 237
271 270 270 269 269 268 267 267 267 266 266 266 265 265 265 264 264 264 264 264 263 261 261 261 261 260 260 259 259 259 258 258 257 258 257 257 257 256 255 254 252 251 250 250 250 251 251 251 250 250 249 249 248 248 248 247 246 245 244 244 244 243 242 241 240 240 239 239 239 239 239 239 239 238
271 271 270 270 269 269 268 268 267 267 266 266 265 265 265 264 264 264 264 263 263 261 260 260 260 260 259 259 258 258 258 257 256 256 256 256 256 256 255 254 253 252 251 250 249 249 250 250 250 250 249 249 249 248 248 248 247 246 245 244 244 243 242 242 241 240 240 240 240 239 239 239 239 239
271 271 270 270 269 268 268 267 267 266 266 266 265 264 264 264 264 263 264 263 263 262 261 260 260 259 259 259 258 258 257 257 256 255 255 255 255 255 255 254 254 252 251 250 250 249 249 249 249 249 249 249 248 248 248 248 248 247 246 245 244 243 242 242 242 241 241 240 240 240 239 239 239 239
271 271 270 269 269 268 268 267 267 266 266 265 265 264 263 263 263 263 263 263 263 263 261 260 259 259 258 258 258 257 257 257 256 256 255 254 254 254 254 254 253 252 251 250 250 249 249 249 249 249 248 248 248 248 248 248 248 247 247 246 245 244 243 242 242 242 241 241 241 241 240 239 239 239
273 272 271 270 269 269 268 267 267 266 265 265 264 264 263 262 262 262 262 262 262 262 262 261 260 259 258 258 257 257 257 256 256 255 255 254 253 253 253 253 253 252 251 250 249 249 248 248 248 248 248 247 247 247 247 247 247 247 247 246 245 245 244 243 242 242 242 241 241 241 241 240 240 239
274 273 272 272 271 270 269 268 267 266 265 265 264 264 263 263 262 262 261 261 261 261 261 260 260 259 258 257 257 256 256 255 255 254 254 253 253 252 252 252 252 252 250 249 249 248 248 247 247 247 247 247 247 246 246 246 246 247 247 246 246 245 245 244 243 243 242 242 241 241 241 240 240 240
275 274 274 273 272 271 270 268 267 266 265 265 264 264 263 263 262 262 261 261 261 260 260 260 259 258 257 257 256 256 255 254 254 254 253 253 253 252 251 251 251 251 251 249 248 247 247 247 247 246 246 246 246 246 246 246 246 246 246 246 246 246 245 245 244 244 243 243 242 242 241 240 240 240
276 275 274 273 272 271 270 268 267 266 265 265 264 264 264 263 262 262 261 261 261 260 260 259 259 258 257 256 255 255 254 254 253 253 253 252 252 251 250 250 250 250 250 250 248 247 246 246 246 246 246 246 246 246 245 245 245 245 245 245 246 246 245 245 245 244 244 243 243 242 242 241 241 240
278 277 275 274 272 271 269 268 267 267 266 266 265 265 264 264 263 263 262 261 261 260 260 259 258 258 257 256 255 254 254 253 253 252 251 251 250 250 249 249 249 249 249 249 249 248 247 246 245 246 246 246 246 246 246 245 245 245 245 245 245 245 245 245 245 245 244 244 243 243 242 242 241 241
279 278 277 275 274 272 271 269 269 268 268 268 267 266 265 265 265 265 264 263 263 262 261 260 259 258 257 256 255 254 254 253 252 251 250 250 249 249 248 247 247 247 248 248 248 247 247 246 245 245 245 246 246 246 246 245 245 244 244 244 244 244 244 245 245 245 245 245 244 243 243 243 242 242
278 277 275 274 274 273 272 272 271 270 269 269 268 268 267 266 267 267 267 266 266 265 264 262 261 259 258 256 255 254 253 252 251 250 249 248 248 247 247 246 246 246 246 247 247 246 246 245 244 244 244 244 245 246 246 246 245 244 244 244 244 244 244 244 244 244 245 245 245 244 244 243 243 242
280 277 275 274 273 273 272 272 271 271 270 269 269 268 268 267 268 268 268 268 267 266 265 264 264 263 261 258 256 255 254 252 250 248 247 247 246 246 245 245 244 244 244 245 245 244 244 244 243 242 242 242 243 244 245 245 245 245 244 244 243 243 243 244 244 244 244 245 245 245 244 244 243 243
283 280 278 276 275 274 274 274 274 273 272 271 271 270 269 269 270 270 270 269 267 266 265 264 264 264 263 261 258 256 254 252 250 247 246 245 245 244 244 243 242 241 241 242 242 242 242 242 241 240 240 240 240 241 243 244 244 244 244 243 243 243 243 243 244 244 244 244 245 245 245 244 244 243
287 285 282 279 278 277 276 276 276 274 273 272 272 271 272 272 272 272 271 271 270 268 267 265 263 261 260 260 258 255 254 252 249 246 244 243 243 243 242 241 240 238 238 239 240 240 239 239 239 238 238 237 237 238 240 241 242 243 243 243 243 243 243 243 243 243 244 244 245 245 245 245 245 244
289 287 285 283 281 280 279 277 276 274 273 272 272 272 272 273 272 272 272 271 271 270 269 268 265 260 256 255 253 253 253 252 249 246 243 241 241 240 240 239 238 236 235 236 237 237 236 236 236 235 235 234 234 235 237 238 240 241 242 242 242 242 243 243 243 243 243 244 244 245 245 245 245 245
290 289 288 286 284 282 280 279 277 276 275 274 273 272 272 271 271 270 270 270 269 269 268 267 265 261 256 251 247 247 249 250 248 245 241 238 238 238 237 237 236 234 233 234 234 234 233 232 232 232 231 231 230 232 234 236 238 239 240 241 241 242 242 242 242 242 242 243 243 244 245 245 245 245
293 292 290 289 287 285 283 281 279 277 276 275 274 272 271 270 269 268 268 268 268 268 267 264 262 260 257 252 246 242 243 246 246 243 239 236 237 237 235 235 234 233 232 232 232 232 231 230 229 228 228 228 228 229 231 233 236 237 239 240 240 241 241 242 242 242 242 242 242 243 243 244 244 244
296 294 293 291 289 287 284 281 278 277 276 275 274 274 273 271 269 268 268 267 267 266 265 264 262 260 257 254 248 241 239 241 244 245 239 235 235 235 234 234 233 231 230 230 230 230 229 227 226 226 226 226 226 227 228 231 233 235 237 238 239 240 241 241 242 242 242 241 241 241 242 243 243 243
298 297 295 292 290 287 284 281 279 277 276 276 276 276 275 273 273 272 270 269 266 263 261 262 262 261 258 254 248 242 237 237 242 246 242 235 234 235 234 233 231 230 229 228 228 228 226 224 223 224 225 224 224 225 227 229 231 233 235 237 239 240 241 241 241 241 241 240 240 240 241 242 242 242
300 299 295 292 290 288 285 283 281 280 280 280 279 278 278 278 278 276 273 270 268 265 261 259 259 259 258 254 248 242 237 234 238 244 243 238 236 235 233 232 231 229 227 225 225 225 223 221 221 222 223 222 222 223 225 227 229 231 233 236 239 240 240 240 240 239 238 238 239 240 241 241 242 242
303 300 296 292 290 288 286 285 284 284 283 281 280 280 281 281 278 275 272 270 269 267 263 259 256 256 256 253 247 242 236 233 235 240 240 237 236 235 233 232 231 228 225 222 222 222 221 219 220 221 221 219 219 222 224 226 228 230 232 235 237 239 238 238 237 237 237 237 239 240 241 242 242 242
305 301 297 294 291 288 287 286 287 286 285 282 280 279 277 275 273 271 270 269 268 266 262 258 254 253 252 249 245 241 235 230 231 235 236 234 234 233 231 230 229 227 223 220 219 220 219 218 218 219 219 217 218 221 223 225 226 228 231 234 236 236 236 235 235 235 236 237 240 241 242 242 242 241
306 303 300 297 293 290 289 289 288 287 284 281 278 275 273 271 270 270 270 268 266 263 259 256 253 250 248 245 242 238 232 227 227 230 232 231 229 227 225 224 223 222 219 217 216 216 216 215 215 216 216 216 217 220 222 223 224 226 230 233 234 234 234 233 233 234 236 238 240 242 242 241 241 240
308 306 305 303 300 298 296 294 291 288 286 283 280 277 275 273 273 273 272 269 265 263 260 256 252 248 245 242 239 234 228 224 223 225 226 226 225 222 219 217 216 215 214 212 211 212 212 212 212 213 213 214 215 217 219 220 221 225 229 231 232 232 232 232 233 235 237 238 239 239 239 238 238 237
316 315 315 313 310 307 303 299 295 293 293 292 288 284 281 278 275 273 272 269 266 263 260 256 251 246 241 237 232 227 222 219 219 220 221 222 221 219 216 214 211 210 209 208 207 208 209 209 209 210 210 211 213 215 216 217 220 225 228 230 230 230 230 231 233 235 236 236 235 235 235 234 234 234
320 319 317 315 311 308 306 304 303 304 303 300 295 288 283 279 277 275 272 268 262 255 249 246 244 240 235 230 225 219 215 213 214 215 218 219 220 218 215 212 209 207 206 205 205 205 205 206 206 207 208 210 212 213 214 216 221 225 226 227 228 229 230 231 232 233 233 232 232 232 232 232 232 232
315 314 313 312 311 310 310 309 309 309 306 301 294 288 284 280 277 276 273 267 258 247 237 230 229 228 225 222 219 215 211 209 210 212 214 216 216 216 214 210 206 203 202 202 202 202 202 202 202 204 206 208 210 211 213 217 221 222 223 224 226 228 230 231 231 231 231 231 230 230 230 230 230 230
310 311 311 313 315 315 313 310 309 308 305 299 295 294 292 284 276 272 270 263 249 234 223 216 216 218 215 212 211 209 205 203 204 206 208 210 210 210 208 204 200 198 198 197 197 197 197 198 199 202 205 206 208 210 213 216 218 219 221 223 225 228 230 231 231 231 230 229 228 227 227 227 227 228
313 314 316 320 320 315 310 307 304 302 300 297 297 301 298 286 276 267 260 248 224 201 190 189 196 202 202 200 200 199 196 196 197 199 201 204 204 202 199 195 192 191 192 191 191 192 194 195 197 200 202 203 206 209 211 213 214 216 219 222 225 228 229 229 229 228 226 225 224 223 223 222 223 223
320 319 321 325 321 311 305 303 297 295 293 288 284 282 281 279 272 256 224 187 175 175 175 174 177 181 184 183 186 190 191 191 193 195 198 199 197 193 190 187 185 185 186 186 187 188 190 192 195 197 199 202 204 206 208 209 212 215 218 222 225 226 226 225 224 222 220 219 218 218 217 217 217 218
322 320 323 328 323 310 304 300 292 287 284 275 259 245 251 259 257 243 215 185 170 169 172 173 174 177 179 180 180 183 186 188 190 191 192 191 188 184 182 180 180 182 182 183 183 185 187 190 192 194 197 200 202 203 205 208 212 215 218 221 221 221 220 219 217 215 214 213 213 213 214 215 216 218
323 320 323 330 328 316 307 301 291 285 281 272 254 238 238 245 246 237 221 201 184 175 173 174 177 180 182 184 183 183 184 187 188 187 185 182 180 178 177 177 178 179 179 179 180 182 185 187 189 191 194 196 198 201 204 208 212 215 217 217 216 215 214 213 212 210 210 210 211 213 214 216 218 220
324 321 322 330 334 325 312 303 295 288 284 280 268 250 241 244 246 240 229 218 204 190 182 180 181 183 184 185 186 184 183 185 185 182 179 177 176 175 175 175 176 175 175 176 178 180 182 184 186 188 191 193 196 200 204 208 211 212 212 210 209 209 209 209 208 208 209 210 212 213 215 217 219 221
325 323 322 327 337 337 324 312 303 293 286 286 283 270 256 254 257 254 241 229 219 209 199 190 186 186 185 184 183 182 180 181 180 177 175 173 172 171 171 171 171 171 171 174 176 177 178 181 183 186 189 192 195 199 203 205 207 207 205 204 204 204 205 205 206 207 208 210 212 214 215 218 220 222
327 326 324 324 333 347 344 330 321 307 292 287 285 278 266 262 264 263 252 234 221 213 207 198 191 186 182 181 180 178 177 176 175 172 171 169 167 167 167 167 167 168 170 172 173 174 177 180 182 186 189 192 194 197 199 200 201 201 201 201 202 202 202 202 204 206 208 210 212 214 217 219 222 224
331 329 327 324 328 344 355 352 348 338 306 283 269 259 254 253 254 250 235 215 200 192 188 184 180 177 175 175 175 174 173 172 170 168 166 164 163 162 163 163 165 167 168 169 170 173 177 179 182 185 188 190 192 194 196 197 198 198 198 199 200 199 200 202 205 207 209 211 214 216 218 221 224 227
335 333 330 326 326 336 353 4 11 17 355 253 239 233 232 234 228 206 179 173 172 168 164 164 166 167 166 167 169 168 167 165 164 162 160 159 159 159 161 163 165 166 167 168 170 174 177 179 182 186 188 188 189 192 194 195 196 196 197 197 197 197 200 203 206 209 210 213 215 217 219 223 225 228
340 338 334 329 328 335 347 0 17 30 47 87 167 186 187 175 162 156 156 156 153 150 150 154 158 160 159 159 160 160 159 158 158 157 156 157 158 160 161 163 164 165 166 168 171 173 176 180 183 186 186 186 188 190 192 193 194 195 196 195 196 198 202 205 207 209 211 213 215 217 220 224 226 228
344 342 339 335 334 341 351 3 23 42 59 87 108 123 133 139 144 147 148 145 142 143 147 150 152 154 153 152 151 152 154 154 155 155 156 157 159 161 162 162 163 164 166 168 170 173 177 180 182 183 184 185 188 189 190 191 192 193 194 195 197 201 204 206 208 210 211 213 215 218 220 223 226 228
348 347 345 344 347 354 4 20 47 72 91 103 113 122 131 138 142 142 140 137 137 140 143 145 146 149 150 148 147 149 151 153 153 155 156 158 159 160 161 162 163 164 165 168 171 174 177 179 180 181 183 186 187 188 189 189 190 192 194 197 199 202 205 206 207 208 210 213 215 218 220 222 225 227
352 352 352 354 1 16 35 56 77 94 105 113 120 127 133 136 137 136 135 135 136 139 141 143 144 146 147 147 146 147 150 151 153 155 156 157 159 160 161 162 163 164 167 170 173 176 177 178 178 180 183 186 187 188 189 189 190 192 195 198 200 202 204 205 206 208 211 214 216 217 219 222 224 226